STARLINK-32893, 62897

Orbit data source: Space-Track

STARLINK-32893, 62897 is a payload satellite owned by SpaceX/Seattle (US) in LEO that was launched on Tue, 04 Feb 2025 UTC via an FALCON 9 launch vehicle from the Air Force Eastern Test Range (AFETR). Payload-class satellites include a variety of spacecraft equipped with specific instruments for various scientific and technological missions. These include communications satellites like Starlink; space stations such as the ISS; scientific satellites like the Hubble; Earth observation satellites from companies like Planet Labs, Umbra, and HawkEye 360; GPS; miniature CubeSats for education and research; and military/defense satellites.

Loading next visibility...
Identifier
62897, 2025-024U
Orbit
LEO
Country
Flag of USUS
Related business
Manufacturer
SpaceX/Seattle
Mission
Operational Commercial Communications
Bus & Motor
STARLINK V2M, Unknown motor
Mass
730 kg wet, ~700 kg dry
Launch date (UTC)
2025-02-04 (10 months ago)
Launch vehicle
FALCON 9
Launch site
Air Force Eastern Test Range (AFETR)
Object type
Payload
Rocket body
Debris
Shape & HBR
Box + 2 Pan, 17.7 m
Radar Cross Section
33.884 m², Large (>1 m²)

Expand to show TLE details & history
Last TLE update: 1 day ago

TLE from 1 day ago
0 STARLINK-32893
1 62897U 25024U   25340.47279976  .00057611  00000-0  20822-2 0  9996
2 62897  43.0027 131.4589 0002186 260.0320 100.0285 15.27651483 48012
Epoch: 2025-12-06T11:20Z
TLE epoch observation values (Epoch: 2025-12-06T11:20:49.899Z)
Latitude
-0.00001°
Longitude
-114.24906°
Altitude
482.872 km
Speed
7.626 km/s
True Right ascension
08h 45m 50s
True Declination
0° 00' 00"
Sunlit
Object was in full shadow at epoch
Visualization orbit readout
Latitude
Unknown
Longitude
Unknown
Altitude
Unknown
Speed
Unknown
Apparent Right ascension
Unknown
Apparent Declination
Unknown
Sunlit
N/A
Visualization observer readout
Local Sidereal Time
14:56:54
Azimuth
Unknown
Elevation
Unknown
Doppler factor
Unknown
Orbital elements
Apogee altitude
486.28 km
Perigee altitude
483.28 km
Semi-major axis
6,862.917 km
Eccentricity
0.00022
Inclination
43.0027°
RAAN
131.4589°
Arg. of periapsis
260.032°
True anomaly
100.05317°
Mean anomaly
100.0285°
Eccentric anomaly
100.04083°
Mean motion
3.81751 °/min
Orbital period
94.3 mins
BSTAR
0.0020822
Loading maneuver chart data...
Computing Atmospheric mass density...
Loading historical data...
Loading historical data...
Loading historical data...
Loading historical data...
Loading historical data...
Loading historical data...
Loading historical data...

Documentation

Showing up to 5 results
|